Starlink 32600

operational
NORAD ID: 62178 Int'l Des: 2024-225 Owner: SPXS Country: US Constellation: starlink
LEOCIRCULAR

About Starlink 32600

Description loading...

Live Position

Loading 3D Globe...

Upcoming Passes

Altitude History

Altitude vs Time

uPlot chart will show altitude changes over time

Two-Line Element Set

1 62178U 24225R 25303.91843973 .00009335 00000-0 78881-3 0 9991
2 62178 70.0008 121.7664 0003355 258.9013 101.1769 14.98343695 50688
Epoch: Oct 30, 2025 • Age: 13 hours

Current Status

Altitude 585.0 km
Velocity 7.57 km/s
Sub-Earth Point 65.29°N, 35.65°W
Launch Date Nov 30, 2024
Age 0.9 years
Type internet

Technical Details

Classification Payload
Mass 730.00 kg
Dry Mass 700.00 kg
Total Mass 730.00 kg
Length 0.30 m
Diameter 4.10 m
Span 29.00 m
Shape Box + pan
Manufacturer SPXS
Bus Type Starlink V2M
Phase Status In Orbit
Owner/State SPXS/US

Large Constellations

Loading constellations...